N8WEL Weather Reports


Display with metric or nautical units.
time (UTC)temp
F
wind
direction
speed
MPH
gust
MPH
rain 1hr
in
rain 24hr
in
rain mn
in
humidity
%
barometer
mb
20260902194701 96 0 0.0 4.0 0.00 0.00 0.00 46 1015.7
20260902175258 93 0 0.0 5.0 0.00 0.00 0.00 52 1016.6
20260902174258 94 0 0.0 8.0 0.00 0.00 0.00 50 1016.7
20260902170026 93 0 0.0 6.0 0.00 0.00 0.00 53 1017.1
20260902164526 93 0 0.0 0.0 0.00 0.00 0.00 53 1017.1
20260902163026 92 0 0.0 0.0 0.00 0.00 0.00 55 1017.2
20260902161101 92 0 0.0 1.0 0.00 0.00 0.00 56 1017.3
20260902152101 89 0 0.0 3.0 0.00 0.00 0.00 59 1017.5
20260902140220 84 0 0.0 6.0 0.00 0.00 0.00 68 1017.5
20260902135721 83 0 0.0 0.0 0.00 0.00 0.00 71 1017.6
20260902134144 83 287 1.0 4.0 0.00 0.00 0.00 71 1017.6
20260902132644 83 0 0.0 1.0 0.00 0.00 0.00 73 1017.7
20260902131144 81 0 0.0 4.0 0.00 0.00 0.00 75 1017.6
20260902123433 77 0 0.0 0.0 0.00 0.00 0.00 84 1017.5
20260902121933 75 0 0.0 0.0 0.00 0.00 0.00 88 1017.6
20260902121433 74 0 0.0 0.0 0.00 0.00 0.00 90 1017.5
20260902120433 0 0.0 0.0 0.00 0.00 0.00 1017.3
20260902112933 0 0.0 0.0 0.00 0.00 0.00 1017.0
20260902112433 0 0.0 0.0 0.00 0.00 0.00 1017.0
20260902105433 0 0.0 0.0 0.00 0.00 0.00 1016.8
20260902103933 0 0.0 0.0 0.00 0.00 0.00 1016.8
20260902094933 70 0 0.0 0.0 0.00 0.00 0.00 95 1016.7
20260902094433 70 0 0.0 0.0 0.00 0.00 0.00 95 1016.9
20260902093933 70 0 0.0 0.0 0.00 0.00 0.00 94 1016.7
20260902081601 71 0 0.0 0.0 0.00 0.00 0.00 93 1016.2
20260902080100 72 0 0.0 0.0 0.00 0.00 0.00 91 1016.1
20260902075106 72 0 0.0 0.0 0.00 0.00 0.00 92 1016.1